Location: Hamburg
(53.5554°N, 9.9941°E)
Time: 02:20:06
(UTC+02:00)

ISS - Pass Details

Date: 12 May 2021
Orbit: 417 x 422 km, 51.6° (Epoch: 15 June)

Event Time Altitude Azimuth Distance (km) Brightness Sun altitude
Exits shadow 01:17:11 24° 105° (ESE) 927 -2.2 -18.3°
Drops below altitude 10° 01:18:48 10° 90° (E) 1,510 -0.9 -18.3°
Sets 01:20:58 0° 83° (E) 2,377 0.2 -18.3°
